Location: Góry Miechowskie
(50.3599°N, 20.1803°E)
Time: 22:57:23
(UTC+00:00)

Vanguard 3 - Pass Details

Date: 14 September 2024
Orbit: 507 x 3224 km, 33.3° (Epoch: 06 October)

Event Time Altitude Azimuth Distance (km) Brightness Sun altitude
Rises 03:00:57 0° 183° (S) 6,713 11.6 -12.1°
Reaches altitude 10° 03:08:24 10° 164° (SSE) 6,012 11.5 -11.0°
Maximum altitude 03:17:27 15° 135° (SE) 5,679 11.8 -9.6°
Drops below altitude 10° 03:26:25 10° 107° (ESE) 6,014 12.6 -8.3°
Sets 03:33:43 0° 89° (E) 6,725 13.8 -7.1°
